COSMOS 2233

导读

COSMOS 2233是独立国家联合体(CIS)于1993年2月9日发射的军用卫星,隶属于俄罗斯"宇宙"系列卫星项目。作为冷战后继承自苏联航天体系的军事侦察卫星,它主要承担无线电信号监测与电子情报收集任务,可对全球无线电发射源进行定位和活动监测,为战略预警提供天基支持。该卫星运行在近地轨道,至今其轨道碎片仍在太空留存。

Basic Information
目录编号:
22487
目录名称:
COSMOS 2233
国际标识:
1993-008A
轨道中心:
EARTH
卫星名称:
COSMOS 2233
卫星全名:
--
卫星状态:
在轨 (已飞行12176 天)
发射日期:
1993-02-09 UTC
国别 :
俄罗斯(独联体) (CIS)
星等 :
--
Orbit Information
数据来源 国际轨道数据 AOE轨道数据
星历时间 2026-06-12T12:37:12+0800
17小时前
查看轨道信息
2026-06-11T01:00:00+0800
2天前
查看轨道信息
半长轴 7356.101km 7356.129km
偏心率 0.0039196 0.0038888
轨道倾角 82.944° 82.941°
近地点辐角 128.317° 131.397°
升交点赤经 186.266° 187.369°
平近点角 306.508° 155.386°
近地点 949.131km 949.385km
远地点 1006.797km 1006.599km
周期 104.648分钟 104.649分钟
每日圈数 13.760407 13.760329
Detailed Information
使用方式:
暂无
2D Orbit Map
3D Orbit Map
Orbit Altitude Analysis Chart
Orbit Inclination Analysis Chart
Orbit Comprehensive Analysis Chart
View Comprehensive Chart